SCP
1 1 1 1 1 1 1 1 1 0 0 0 0 0 0 0 0 0 1 1 1 1 0 0 0 0 0 0 0 0 0 0 0 0 0 0 0 0 0 0 0 0 0
1 1 1 1 1 1 1 1 1 1 1 1 0 0 0 0 1 1 1 1 1 1 1 0 0 0 0 0 0 0 0 0 0 0 0 0 0 0 0 0 0 0 0
2 2 2 2 1 1 1 1 1 1 1 1 1 1 1 1 1 1 1 1 1 1 1 1 1 0 0 0 0 0 0 0 0 0 0 0 0 0 0 0 0 0 0
2 2 2 2 2 1 1 1 1 1 1 1 1 1 1 1 1 1 1 1 1 1 1 1 1 1 0 0 0 0 0 0 0 0 0 0 0 0 0 0 0 0 0
2 2 2 2 2 2 2 1 1 1 1 1 1 1 1 1 1 1 1 1 1 1 1 1 1 1 0 0 0 0 0 0 0 0 0 0 0 0 0 0 0 0 0
2 2 2 2 2 2 2 1 1 1 1 1 1 1 1 1 1 1 1 1 1 1 1 1 1 0 0 0 0 0 0 0 0 0 0 0 0 0 0 0 0 0 0
2 2 2 2 2 2 1 1 1 1 1 1 1 1 1 1 1 1 1 1 1 1 1 1 0 0 0 0 0 0 0 0 0 0 0 0 0 0 0 0 0 0 0
1 1 1 1 1 1 1 1 1 1 1 1 1 1 0 0 0 0 0 0 0 0 0 0 0 0 0 0 0 0 0 0 0 0 0 0 0 0 0 0 0 0 0
1 1 1 1 1 1 1 1 1 1 1 1 1 1 1 0 0 0 0 0 0 0 0 0 0 0 0 0 0 0 0 0 0 0 0 0 0 0 0 0 0 0 0
1 1 1 1 1 1 1 1 1 1 1 1 1 1 1 1 0 0 0 0 0 0 0 0 0 0 0 0 0 0 0 0 0 0 0 0 0 0 0 0 0 0 0
1 1 1 1 1 1 1 1 1 1 1 1 1 1 1 1 0 0 0 0 0 0 0 0 0 0 0 0 0 0 0 0 0 0 0 0 0 0 0 0 0 0 0
1 1 1 1 1 1 1 1 1 1 1 1 1 1 1 0 0 0 0 0 0 0 0 0 0 0 0 0 0 0 0 0 0 0 0 0 0 0 0 0 0 0 0
1 1 1 1 1 1 1 1 1 1 1 1 1 1 0 0 0 0 0 0 0 0 0 0 0 0 0 0 0 0 0 0 0 0 0 0 0 0 0 0 0 0 0
0 0 0 0 0 1 1 1 1 1 1 1 1 0 0 0 0 0 0 0 0 0 0 0 0 0 0 0 0 0 0 0 0 0 0 0 0 0 0 0 0 0 0
0 0 0 0 0 0 0 0 0 0 0 0 0 0 0 0 0 0 0 0 0 0 0 0 0 0 0 0 0 0 0 0 0 0 0 0 0 0 0 0 0 0 0
0 0 0 0 0 0 0 0 0 0 0 0 0 0 0 0 0 0 0 0 0 0 0 0 0 0 0 0 0 0 0 0 0 0 0 0 0 0 0 0 0 0 0
0 0 0 0 0 0 0 0 0 0 0 0 0 0 0 0 0 0 0 0 0 0 0 0 0 0 0 0 0 0 0 0 0 0 0 0 0 0 0 0 0 0 0
0 0 0 0 0 0 0 0 0 0 0 0 0 0 0 0 0 0 0 0 0 0 0 0 0 0 0 0 0 0 0 0 0 0 0 0 0 0 0 0 0 0 0
0 0 0 0 0 0 0 0 0 0 0 0 0 0 0 0 0 0 0 0 0 0 0 0 0 0 0 0 0 0 0 0 0 0 0 0 0 0 0 0 0 0 0
0 0 0 0 0 0 0 0 0 0 0 0 0 0 0 0 0 0 0 0 0 0 0 0 0 0 0 0 0 0 0 0 0 0 0 0 0 0 0 0 0 0 0
0 0 0 0 0 0 0 0 0 0 0 0 0 0 0 0 0 0 0 0 0 0 0 0 0 0 0 0 0 0 0 0 0 0 0 0 0 0 0 0 0 0 0
0 0 0 0 0 0 0 0 0 0 0 0 0 0 0 0 0 0 0 0 0 0 0 0 0 0 0 0 0 0 0 0 0 0 0 0 0 0 0 0 0 0 0
0 0 0 0 0 0 0 0 0 0 0 0 0 0 0 0 0 0 0 0 0 0 0 0 0 0 0 0 0 0 0 0 0 0 0 0 0 0 0 0 0 0 0
0 0 0 0 0 0 0 0 0 0 0 0 0 0 0 0 0 0 0 0 0 0 0 0 0 0 0 0 0 0 0 0 0 0 0 0 0 0 0 0 0 0 0
0 0 0 0 0 0 0 0 0 0 0 0 0 0 0 0 0 0 0 0 0 0 0 0 0 0 0 0 0 0 0 0 0 0 0 0 0 0 0 0 0 0 0
0 0 0 0 0 0 0 0 0 0 0 0 0 0 0 0 0 0 0 0 0 0 0 -0 -0 -0 -0 -0 0 0 0 0 0 0 0 0 0 0 0 0 0 0 0
Wind_Speed
3 3 2 3 5 4 5 5 6 6 6 5 4 5 4 3 4 5 5 10 11 10 10 10 9 8 7 6 5 4 4 3 3 2 2 1 1 2 2 3 3 3 3
3 2 2 2 3 3 3 4 5 3 3 2 2 1 0 1 3 6 5 6 9 10 10 10 9 9 7 7 6 6 5 4 4 4 3 4 4 5 5 5 5 6 6
3 3 2 2 3 3 2 2 3 2 3 2 1 1 1 2 3 5 6 5 5 7 8 8 9 8 8 8 7 6 6 6 6 7 7 7 7 8 7 7 7 7 7
2 2 3 3 3 3 2 2 2 2 2 1 1 0 1 2 3 3 4 4 4 4 5 8 8 9 9 9 9 9 8 8 8 8 8 9 9 9 9 9 10 10 9
1 2 3 3 3 3 3 4 3 2 2 2 1 1 1 2 2 3 3 4 4 5 4 7 9 9 9 9 9 9 9 9 9 9 9 9 10 10 10 10 10 11 10
1 2 2 3 3 3 3 3 3 3 3 3 2 1 1 2 2 2 2 3 4 5 5 6 5 7 10 10 10 10 10 10 10 10 11 11 12 12 12 12 12 12 11
1 1 2 2 3 3 4 4 4 4 3 4 3 1 1 1 2 1 1 2 4 4 5 6 5 5 6 11 11 12 12 11 11 12 12 12 12 12 12 12 12 11 11
2 2 1 2 3 3 4 4 4 3 4 5 4 3 2 2 1 1 2 2 3 3 4 6 6 6 6 4 8 12 12 12 12 12 12 12 12 12 12 12 11 11 10
2 2 2 2 2 3 3 4 4 5 4 4 4 4 5 5 3 1 2 2 3 3 3 4 6 7 7 6 6 9 12 11 12 12 12 12 12 11 11 11 11 10 10
2 2 3 3 2 2 2 3 3 4 5 4 4 4 3 4 5 4 2 2 3 4 3 4 6 6 7 6 8 11 12 11 12 13 13 12 12 11 11 10 10 9 9
3 3 3 2 2 2 2 2 2 2 3 4 3 3 4 2 3 4 4 4 3 3 3 4 5 5 6 6 6 10 13 12 12 12 12 12 11 11 11 10 9 9 9
3 5 4 3 3 2 2 2 2 2 2 3 3 3 3 3 4 4 4 6 5 3 4 3 4 5 5 5 8 14 13 12 11 11 10 10 11 11 10 10 9 9 9
4 5 4 3 3 3 2 2 1 1 1 2 2 2 2 2 3 3 6 5 5 3 3 3 3 4 5 5 7 13 12 12 11 10 9 9 9 10 9 9 8 8 8
4 5 4 3 3 3 3 3 2 1 1 1 1 1 1 1 2 3 5 7 6 3 3 3 2 3 4 5 7 9 7 10 10 9 8 8 8 8 8 7 7 7 7
4 5 5 4 4 4 3 3 3 3 2 2 1 1 1 2 2 3 4 6 7 6 4 3 2 2 4 4 6 5 5 9 9 8 7 7 6 6 6 6 5 5 5
5 5 5 5 5 5 5 4 3 3 3 2 2 3 3 2 3 4 4 4 4 6 5 3 3 4 5 6 7 4 5 11 9 8 7 6 5 5 4 4 4 4 3
6 6 6 6 6 6 5 5 4 4 3 3 2 3 4 4 4 4 5 5 5 6 9 5 4 5 5 5 5 4 5 5 5 8 7 6 6 5 4 3 3 2 1
6 6 6 6 6 6 6 5 5 5 4 4 3 4 5 4 5 5 5 6 6 6 9 11 6 5 5 6 5 5 6 6 6 9 9 8 7 6 5 4 3 2 2
6 6 6 7 7 6 6 6 6 5 5 5 5 5 5 5 6 5 6 6 7 8 7 9 8 5 4 5 5 5 5 4 7 8 9 8 8 7 6 5 5 4 4
6 7 7 7 8 8 8 7 6 7 7 7 7 7 6 6 6 7 7 8 8 8 8 8 7 6 5 5 4 3 3 3 3 7 7 8 8 9 8 7 6 6 6
8 7 8 8 8 8 8 7 6 8 8 9 9 9 10 12 12 9 8 7 8 7 6 7 6 5 4 4 3 3 4 3 2 3 4 5 5 4 5 7 8 8 8
7 8 9 9 10 9 13 13 8 7 7 8 8 8 10 11 14 15 15 12 9 7 6 6 6 6 5 3 2 2 2 3 2 2 2 3 5 5 5 5 9 11 10
7 8 8 8 9 12 15 15 12 7 8 7 7 7 9 10 10 9 12 13 12 11 9 6 6 5 5 2 2 2 2 2 2 2 1 1 2 3 4 6 12 12 11
6 6 7 7 8 11 14 13 11 8 8 9 9 9 9 9 9 7 9 10 10 9 8 7 6 5 5 3 2 1 2 1 0 1 2 1 1 1 2 4 11 12 12
5 6 6 7 8 9 13 13 9 6 8 9 10 11 10 9 12 11 8 9 8 6 9 11 9 7 6 5 3 2 1 1 1 1 0 0 0 0 1 3 6 12 12
5 6 7 7 8 8 12 13 9 4 6 6 7 9 13 11 11 11 7 7 7 5 5 5 4 2 2 2 1 1 1 1 1 1 1 1 1 1 1 1 2 4 6
Wind_Direction
225 213 186 182 196 195 193 198 207 216 225 234 235 222 208 195 137 124 137 149 150 154 162 169 175 181 184 185 180 168 154 151 146 135 137 161 153 124 108 107 107 104 97
197 209 206 202 224 221 199 209 219 211 211 240 260 287 268 185 116 125 134 139 142 150 155 160 163 166 168 166 160 153 146 142 132 124 112 98 99 102 100 99 98 95 91
191 197 215 213 238 246 219 224 234 229 201 198 245 318 8 33 80 111 124 127 131 134 140 146 152 152 149 146 143 137 129 120 113 109 106 103 101 100 98 97 95 92 90
194 196 212 216 228 243 234 224 229 231 210 167 150 296 40 55 67 88 100 115 124 123 127 136 136 137 137 134 130 124 119 115 112 110 108 105 102 100 97 94 90 90 89
228 214 221 218 217 229 224 225 209 205 195 162 159 175 62 62 69 85 86 100 107 118 126 127 125 125 128 127 126 123 119 116 113 111 110 106 104 100 96 93 92 90 87
241 242 239 229 224 225 225 221 206 201 189 164 170 151 88 70 67 84 95 93 99 113 123 121 117 110 116 117 116 115 114 109 107 104 105 104 102 99 96 94 91 88 85
266 248 255 241 228 224 222 223 214 197 190 159 146 134 79 83 82 66 97 100 93 92 101 112 110 106 106 105 108 112 111 110 108 105 103 103 105 103 101 97 93 89 85
348 283 264 254 235 231 221 215 210 202 199 183 173 157 169 163 97 70 81 98 104 100 101 109 109 107 104 98 106 109 107 108 110 110 107 105 105 105 103 99 95 91 86
12 345 319 286 267 245 232 217 209 211 207 204 198 182 176 180 144 119 86 88 100 101 98 102 106 103 105 103 107 104 106 107 110 110 109 108 106 103 102 99 95 91 87
19 360 336 322 306 287 261 237 215 221 207 208 215 215 199 146 152 148 120 89 89 89 93 105 103 104 105 103 104 108 104 103 105 108 108 105 103 102 99 96 92 89 85
27 11 353 337 312 302 296 267 240 222 214 217 215 206 203 180 152 145 153 147 107 73 77 86 97 97 100 104 106 108 101 97 98 103 104 105 104 103 101 97 93 87 81
23 11 5 353 340 334 318 293 254 230 229 227 227 216 193 176 176 154 148 150 133 99 71 65 88 98 101 105 114 113 107 102 100 102 105 106 104 102 98 95 90 84 79
15 7 9 3 350 343 339 332 305 260 247 243 235 226 215 195 161 146 137 138 127 112 86 57 60 94 106 102 113 116 112 110 106 103 103 104 102 101 96 91 88 83 78
13 6 8 11 8 3 1 360 353 350 338 287 273 236 186 160 158 152 142 138 129 114 104 112 74 92 109 111 120 117 114 116 111 107 105 104 103 103 100 94 89 84 79
12 15 16 15 18 18 15 18 31 27 21 25 24 58 111 117 125 125 135 144 143 144 143 148 131 124 119 120 138 127 128 131 124 119 117 116 116 112 107 101 96 89 83
14 18 24 19 25 28 26 28 34 34 39 40 57 68 74 88 108 118 126 119 119 131 132 136 139 148 145 147 150 141 142 144 138 137 137 137 134 131 125 119 111 101 89
20 24 24 28 33 31 30 32 36 36 44 50 72 91 95 100 108 115 119 122 119 117 123 124 130 140 138 137 143 154 151 151 151 160 159 158 156 158 153 146 140 132 115
26 29 31 37 42 40 34 34 37 39 42 54 70 86 95 103 108 116 121 126 127 125 130 132 135 140 147 148 160 169 166 168 163 172 173 174 175 178 180 181 179 184 195
33 36 38 39 38 39 40 42 48 50 54 58 66 78 84 92 98 103 111 116 118 120 119 127 133 140 148 160 166 182 168 157 170 168 180 189 192 193 196 196 201 207 216
42 40 42 42 42 38 34 42 57 59 62 63 64 69 71 79 93 104 104 106 113 116 121 127 136 145 148 163 167 171 158 179 172 170 178 183 195 201 205 206 211 217 222
52 49 48 45 43 41 30 35 58 71 73 74 74 75 75 79 79 87 96 103 113 118 126 132 135 138 145 155 173 177 161 169 177 160 165 180 178 192 204 215 219 223 226
55 54 51 52 47 38 25 32 46 64 73 81 87 88 87 82 84 86 89 91 96 107 115 121 126 131 133 138 142 159 142 145 165 170 169 192 175 192 198 197 207 214 222
61 60 56 55 51 31 25 29 38 59 64 67 71 77 84 79 75 86 89 84 76 75 86 100 105 112 112 109 108 100 98 121 146 176 155 214 195 194 191 186 194 208 219
66 66 62 57 53 35 25 27 38 61 61 61 61 65 72 66 58 65 86 83 75 63 69 77 82 83 81 61 49 84 128 128 123 179 147 195 209 180 156 168 199 209 219
70 71 66 59 54 37 27 30 40 69 67 63 61 57 61 60 48 61 81 90 90 85 79 83 86 91 88 76 52 28 37 81 136 161 133 166 224 177 185 191 208 215 225
80 78 70 61 58 48 33 33 36 74 85 85 78 67 57 55 52 58 67 78 81 79 91 99 94 102 122 109 72 39 10 42 98 102 43 18 349 9 314 245 197 198 226